Terminal Aerodrome Forecast
Issued by NWS Cleveland, OH

Home | Current Version | Previous Version | Graphics & Text | Print | Product List | Glossary On
Versions: 1 2 3 4 5 6 7 8 9 10 11 12 13 14 15 16 17 18 19 20 21 22 23 24 25 26 27 28 29
000
FTUS41 KCLE 201455 AAA
TAFCLE
TAF AMD
KCLE 201455Z 2015/2118 20018G28KT P6SM VCSH SCT060 BKN100
      TEMPO 2016/2018 20027G37KT
     FM210000 19014KT P6SM SCT060 BKN200
     FM211100 21012KT 6SM SHRA SCT040 OVC080
     FM211400 29012KT 3SM -RA BR BKN008 OVC020=

USA.gov is the U.S. government's official web portal to all federal, state and local government web resources and services.